Monett, MO

10:09 AM CDT on March 30, 2017 (GMT -0500)
Monett

Weather History for KHFJ - October, 2011

Change the Weather History Date:

Monday, October 24, 2011

  Actual Average (KJLN) Record (KJLN)
Temperature  
Mean Temperature 58 °F -  
Max Temperature 66 °F 66 °F 88 °F (2003)
Min Temperature 51 °F 45 °F 24 °F (1999)
Degree Days  
Heating Degree Days 8    
Growing Degree Days 8 (Base 50)    
Moisture  
Dew Point 53 °F    
Average Humidity 95    
Maximum Humidity 100    
Minimum Humidity 77    
Precipitation  
Precipitation 0.00 in - - ()
Sea Level Pressure  
Sea Level Pressure 30.11 in    
Wind  
Wind Speed 5 mph (SW)    
Max Wind Speed 8 mph    
Max Gust Speed -    
Visibility 8 miles    
Events      
Averages and records for this station are not official NWS values.
T = Trace of Precipitation, MM = Missing Value Source: NWS Daily Summary

Daily Weather History Graph

Daily Weather History Graph

Search for Another Location

Airport or City:

Trip Planner

Search our weather history database for the weather conditions in past years. The results will help you decide how hot, cold, wet, or windy it might be!

Date:

Astronomy

Oct. 24, 2011 Rise Set
Actual Time 7:31 AM CDT 6:28 PM CDT
Civil Twilight 7:05 AM CDT 6:54 PM CDT
Nautical Twilight 6:35 AM CDT 7:24 PM CDT
Astronomical Twilight 6:04 AM CDT 7:54 PM CDT
Moon 4:54 AM CDT (10/24) 4:51 PM CDT (10/24)
Length of Visible Light 11h 49m
Length of Day
10h 56m
Waning Crescent, 7% of the Moon is Illuminated
Oct 24
Waning Crescent
Oct 26
New
Nov 2
First Quarter
Nov 10
Full
Nov 18
Last Quarter

Hourly Weather History & Observations

Time (CDT) Temp. Dew Point Humidity Pressure Visibility Wind Dir Wind Speed Gust Speed Precip Events Conditions
12:35 AM 55.4 °F 53.6 °F 94% 30.06 in 10.0 mi SSW 6.9 mph - N/A   Unknown
12:55 AM 55.4 °F 53.6 °F 94% 30.07 in 10.0 mi SSW 6.9 mph - N/A   Unknown
1:15 AM 55.4 °F 53.6 °F 94% 30.07 in 10.0 mi SSW 6.9 mph - N/A   Unknown
1:35 AM 55.4 °F 53.6 °F 94% 30.07 in 10.0 mi South 6.9 mph - N/A   Unknown
1:55 AM 55.4 °F 53.6 °F 94% 30.07 in 10.0 mi South 8.1 mph - N/A   Unknown
2:15 AM 55.4 °F 53.6 °F 94% 30.07 in 10.0 mi SSW 6.9 mph - N/A   Unknown
2:35 AM 55.4 °F 53.6 °F 94% 30.08 in 10.0 mi SSW 5.8 mph - N/A   Unknown
2:55 AM 53.6 °F 53.6 °F 100% 30.09 in 10.0 mi SW 5.8 mph - N/A   Unknown
3:15 AM 53.6 °F 51.8 °F 94% 30.09 in 10.0 mi SW 5.8 mph - N/A   Unknown
3:35 AM 53.6 °F 51.8 °F 94% 30.09 in 7.0 mi SW 3.5 mph - N/A   Unknown
3:55 AM 51.8 °F 51.8 °F 100% 30.09 in 7.0 mi SW 4.6 mph - N/A   Unknown
4:15 AM 51.8 °F 51.8 °F 100% 30.09 in 7.0 mi SSW 4.6 mph - N/A   Unknown
4:35 AM 51.8 °F 51.8 °F 100% 30.09 in 5.0 mi Calm Calm - N/A   Unknown
4:55 AM 51.8 °F 51.8 °F 100% 30.10 in 7.0 mi Calm Calm - N/A   Unknown
5:15 AM 51.8 °F 51.8 °F 100% 30.10 in 7.0 mi Calm Calm - N/A   Unknown
5:35 AM 51.8 °F 51.8 °F 100% 30.11 in 7.0 mi Calm Calm - N/A   Unknown
5:55 AM 51.8 °F 51.8 °F 100% 30.11 in 7.0 mi SW 4.6 mph - N/A   Unknown
6:15 AM 51.8 °F 51.8 °F 100% 30.12 in 7.0 mi SSW 5.8 mph - N/A   Unknown
6:35 AM 51.8 °F 51.8 °F 100% 30.11 in 5.0 mi SSW 5.8 mph - N/A   Unknown
6:55 AM 51.8 °F 51.8 °F 100% 30.12 in 7.0 mi Calm Calm - N/A   Unknown
7:35 AM 51.8 °F 51.8 °F 100% 30.14 in 7.0 mi SW 4.6 mph - N/A   Unknown
8:15 AM 53.6 °F 53.6 °F 100% 30.15 in 5.0 mi Calm Calm - N/A   Unknown
8:35 AM 55.4 °F 53.6 °F 94% 30.16 in 5.0 mi Calm Calm - N/A   Unknown
8:55 AM 57.2 °F 55.4 °F 94% 30.17 in 7.0 mi Calm Calm - N/A   Unknown
9:15 AM 59.0 °F 55.4 °F 88% 30.17 in 10.0 mi SSW 5.8 mph - N/A   Unknown
9:35 AM 60.8 °F 57.2 °F 88% 30.18 in 10.0 mi SW 5.8 mph - N/A   Unknown
10:15 AM 62.6 °F 57.2 °F 82% 30.18 in 10.0 mi SW 5.8 mph - N/A   Unknown
10:35 AM 64.4 °F 57.2 °F 77% 30.18 in 10.0 mi WSW 6.9 mph - N/A   Unknown
10:55 AM 66.2 °F 59.0 °F 78% 30.18 in 10.0 mi SW 6.9 mph - N/A   Unknown